FW5813 Weather Reports


time (UTC)temp
C
wind
direction
speed
KPH
gust
KPH
rain 1hr
cm
rain 24hr
cm
rain mn
cm
humidity
%
barometer
mb
20260901141055 28 241 3.2 25.7 0.00 0.03 0.00 34 1019.2
20260901140109 27 301 3.2 14.5 0.00 0.03 0.00 36 1019.1
20260901135056 27 261 4.8 19.3 0.00 0.03 0.00 36 1019.1
20260901134556 27 344 12.9 17.7 0.00 0.03 0.00 36 1019.4
20260901134056 28 2 0.0 14.5 0.00 0.03 0.00 35 1019.3
20260901132556 27 346 1.6 14.5 0.00 0.03 0.00 37 1019.3
20260901131556 26 343 1.6 20.9 0.00 0.03 0.00 40 1019.6
20260901131055 27 3 4.8 19.3 0.00 0.03 0.00 38 1019.5
20260901130109 26 313 3.2 14.5 0.00 0.03 0.00 39 1019.5
20260901125556 26 232 4.8 14.5 0.00 0.03 0.00 39 1019.6
20260901125057 26 353 3.2 11.3 0.00 0.03 0.00 39 1019.5
20260901124606 26 293 3.2 11.3 0.00 0.03 0.00 39 1019.9
20260901124056 26 238 1.6 11.3 0.00 0.03 0.00 38 1019.6
20260901123556 26 332 3.2 14.5 0.00 0.03 0.00 38 1019.6
20260901123056 26 290 3.2 14.5 0.00 0.03 0.00 39 1019.6
20260901122556 26 347 4.8 14.5 0.00 0.03 0.00 38 1019.8
20260901121556 26 306 3.2 17.7 0.00 0.03 0.00 40 1019.8
20260901121056 25 359 11.3 19.3 0.00 0.03 0.00 40 1019.6
20260901120556 25 220 3.2 19.3 0.00 0.03 0.00 39 1019.7
20260901115556 26 319 6.4 20.9 0.00 0.03 0.00 40 1019.8
20260901115056 26 338 4.8 17.7 0.00 0.03 0.00 40 1019.8
20260901114556 26 341 6.4 17.7 0.00 0.03 0.00 39 1019.9
20260901114056 26 296 3.2 17.7 0.00 0.03 0.00 38 1019.8
20260901113556 27 247 3.2 17.7 0.00 0.03 0.00 37 1020.0
20260901113056 26 356 8.0 17.7 0.00 0.03 0.00 40 1020.2
20260901112556 27 306 3.2 16.1 0.00 0.03 0.00 38 1019.7
20260901112056 28 217 3.2 17.7 0.00 0.03 0.00 36 1019.9
20260901110556 27 285 3.2 9.7 0.00 0.03 0.00 37 1019.9
20260901105556 27 250 1.6 19.3 0.00 0.03 0.00 39 1019.9
20260901105055 27 354 9.7 20.9 0.00 0.03 0.00 39 1019.9
20260901104555 26 294 9.7 20.9 0.00 0.03 0.00 39 1019.9
20260901104056 26 348 11.3 22.5 0.00 0.03 0.00 39 1020.1
20260901103555 25 238 6.4 22.5 0.00 0.03 0.00 40 1020.1
20260901103056 25 256 6.4 17.7 0.00 0.03 0.00 41 1020.1
20260901102556 26 278 9.7 17.7 0.00 0.03 0.00 39 1020.2
20260901101556 25 233 3.2 14.5 0.00 0.03 0.00 41 1019.9
20260901101056 26 291 6.4 16.1 0.00 0.03 0.00 41 1020.3
20260901100555 26 354 9.7 16.1 0.00 0.03 0.00 41 1020.4
20260901100108 26 347 4.8 17.7 0.00 0.03 0.00 41 1020.1
20260901094555 25 340 4.8 20.9 0.00 0.03 0.00 43 1020.1
20260901094055 25 1 14.5 17.7 0.00 0.03 0.00 43 1020.3
20260901093555 25 213 4.8 29.0 0.00 0.03 0.00 43 1020.3
20260901093109 25 3 4.8 29.0 0.00 0.03 0.00 44 1020.4
20260901092556 25 237 3.2 17.7 0.00 0.03 0.00 43 1020.1
20260901092055 25 352 16.1 17.7 0.00 0.03 0.00 43 1020.2
20260901091555 25 193 4.8 20.9 0.00 0.03 0.00 44 1020.3
20260901091055 25 242 4.8 20.9 0.00 0.03 0.00 45 1020.0
20260901090555 25 339 3.2 20.9 0.00 0.03 0.00 44 1020.4
20260901090107 25 5 9.7 20.9 0.00 0.03 0.00 42 1020.5
20260901085554 25 314 6.4 14.5 0.00 0.03 0.00 43 1020.3
20260901085055 25 284 12.9 14.5 0.00 0.03 0.00 43 1020.3
20260901084608 25 302 4.8 14.5 0.00 0.03 0.00 45 1020.4
20260901083555 25 35 4.8 16.1 0.00 0.03 0.00 46 1020.4
20260901083054 25 284 3.2 14.5 0.00 0.03 0.00 46 1020.6
20260901082555 25 319 6.4 12.9 0.00 0.03 0.00 47 1020.5
20260901082054 25 221 4.8 11.3 0.00 0.03 0.00 48 1020.5
20260901081555 24 28 6.4 11.3 0.00 0.03 0.00 49 1020.6
20260901081055 24 31 4.8 12.9 0.00 0.03 0.00 50 1020.4
20260901080555 23 13 8.0 20.9 0.00 0.03 0.00 50 1020.4
20260901080113 23 346 11.3 20.9 0.00 0.03 0.00 53 1020.4
20260901075555 23 356 8.0 20.9 0.00 0.03 0.00 52 1020.6
20260901075055 23 4 12.9 19.3 0.00 0.03 0.00 52 1020.5
20260901074555 23 214 3.2 12.9 0.00 0.03 0.00 52 1020.4
20260901074055 23 351 1.6 9.7 0.00 0.03 0.00 53 1020.5
20260901073554 23 345 6.4 12.9 0.00 0.03 0.00 53 1020.4
20260901073108 23 220 0.0 12.9 0.00 0.03 0.00 53 1020.3
20260901072559 23 223 1.6 16.1 0.00 0.03 0.00 54 1020.1
20260901072055 23 346 6.4 16.1 0.00 0.03 0.00 54 1020.2
20260901071555 22 254 8.0 16.1 0.00 0.03 0.00 55 1020.3
20260901071107 22 346 8.0 12.9 0.00 0.03 0.00 55 1020.1
20260901070555 22 5 3.2 11.3 0.00 0.03 0.00 56 1020.3
20260901070108 22 342 3.2 8.0 0.00 0.03 0.00 56 1020.0
20260901065554 22 27 3.2 11.3 0.00 0.03 0.00 56 1019.9
20260901065055 22 193 3.2 11.3 0.00 0.03 0.00 55 1020.2
20260901064555 22 236 3.2 8.0 0.00 0.03 0.00 56 1020.1
20260901064055 22 207 3.2 8.0 0.00 0.03 0.00 57 1020.0
20260901063555 22 261 0.0 8.0 0.00 0.03 0.00 58 1019.8
20260901063055 21 234 8.0 8.0 0.00 0.03 0.00 59 1020.0
20260901062555 21 214 1.6 8.0 0.00 0.03 0.00 60 1020.0
20260901062055 20 272 1.6 9.7 0.00 0.03 0.00 62 1019.9
20260901061554 20 214 1.6 14.5 0.00 0.03 0.00 64 1020.0
20260901061056 20 243 12.9 14.5 0.00 0.03 0.00 64 1020.0
20260901060556 20 135 0.0 9.7 0.00 0.03 0.00 65 1019.9
20260901060107 20 25 3.2 11.3 0.00 0.03 0.00 65 1019.6
20260901055055 19 262 3.2 11.3 0.00 0.03 0.00 66 1019.8
20260901054555 18 344 4.8 8.0 0.00 0.03 0.00 68 1019.8
20260901054055 18 279 0.0 9.7 0.00 0.03 0.00 70 1019.7
20260901053555 17 225 8.0 9.7 0.00 0.03 0.00 71 1019.5
20260901052555 17 14 1.6 6.4 0.00 0.03 0.00 74 1019.8
20260901052054 17 43 1.6 8.0 0.00 0.03 0.00 73 1019.5
20260901051054 17 107 3.2 9.7 0.00 0.03 0.00 72 1019.4
20260901050108 17 247 6.4 12.9 0.00 0.03 0.00 74 1019.3
20260901045555 16 254 3.2 11.3 0.00 0.03 0.00 75 1019.5
20260901045055 16 238 1.6 9.7 0.00 0.03 0.00 75 1019.1
20260901044555 16 127 1.6 9.7 0.00 0.03 0.00 76 1019.3
20260901044055 15 212 4.8 6.4 0.00 0.03 0.00 77 1019.1
20260901043555 15 135 3.2 8.0 0.00 0.03 0.00 79 1019.1
20260901043055 15 161 4.8 8.0 0.00 0.03 0.00 78 1019.3
20260901042555 15 252 1.6 6.4 0.00 0.03 0.00 79 1019.0
20260901041555 15 268 1.6 4.8 0.00 0.03 0.00 79 1019.2
20260901041055 15 28 3.2 4.8 0.00 0.03 0.00 78 1019.0
20260901040555 15 172 3.2 4.8 0.00 0.03 0.00 78 1019.2
20260901040108 16 215 3.2 6.4 0.00 0.03 0.00 76 1019.2
20260901035555 16 228 1.6 6.4 0.00 0.03 0.00 76 1019.1
20260901035055 16 248 0.0 4.8 0.00 0.03 0.00 75 1019.1
20260901034555 16 21 3.2 3.2 0.00 0.03 0.00 75 1018.9
20260901034056 16 205 3.2 3.2 0.00 0.03 0.00 75 1018.9
20260901033555 16 241 0.0 3.2 0.00 0.03 0.00 75 1018.5
20260901033055 16 195 0.0 3.2 0.00 0.03 0.00 74 1018.8
20260901032555 16 212 0.0 3.2 0.00 0.03 0.00 74 1018.8
20260901032054 16 321 0.0 3.2 0.00 0.03 0.00 75 1018.6
20260901031555 16 213 1.6 4.8 0.00 0.03 0.00 74 1018.5
20260901030554 16 308 0.0 4.8 0.00 0.03 0.00 75 1018.5
20260901025555 16 28 3.2 6.4 0.00 0.03 0.00 75 1018.6
20260901024555 16 301 3.2 8.0 0.00 0.03 0.00 75 1018.6
20260901024055 16 350 3.2 8.0 0.00 0.03 0.00 74 1018.8
20260901023556 17 309 3.2 6.4 0.00 0.03 0.00 74 1018.6
20260901023108 16 212 1.6 6.4 0.00 0.03 0.00 75 1018.6
20260901022608 16 246 0.0 6.4 0.00 0.03 0.00 75 1018.7
20260901022055 16 353 0.0 6.4 0.00 0.03 0.00 76 1018.5
20260901021055 17 342 1.6 4.8 0.00 0.03 0.00 76 1018.5
20260901020555 17 239 1.6 6.4 0.00 0.03 0.00 76 1018.4
20260901015054 17 262 4.8 4.8 0.00 0.03 0.00 75 1018.5
20260901014555 17 23 1.6 4.8 0.00 0.03 0.00 74 1018.4
20260901014055 17 4 1.6 3.2 0.00 0.03 0.00 74 1018.4
20260901013555 17 287 0.0 3.2 0.00 0.03 0.00 74 1018.3
20260901012556 18 171 0.0 4.8 0.00 0.03 0.00 73 1018.3
20260901012055 18 231 1.6 4.8 0.00 0.03 0.00 73 1018.1
20260901011555 18 311 0.0 4.8 0.00 0.03 0.00 74 1018.3
20260901011055 18 356 1.6 4.8 0.00 0.03 0.00 74 1018.2
20260901010555 18 21 1.6 4.8 0.00 0.03 0.00 75 1018.2
20260901005554 18 272 3.2 8.0 0.00 0.03 0.00 75 1018.2
20260901005055 18 146 0.0 4.8 0.00 0.03 0.00 76 1018.2
20260901004055 18 305 0.0 6.4 0.00 0.03 0.00 77 1018.2
20260901003555 18 8 3.2 6.4 0.00 0.03 0.00 78 1018.3
20260901003055 18 330 4.8 8.0 0.00 0.03 0.00 80 1017.8
20260901002555 17 0 3.2 12.9 0.00 0.03 0.00 82 1017.9
20260901002054 17 351 1.6 12.9 0.00 0.03 0.00 83 1017.7
20260901001555 17 256 3.2 16.1 0.00 0.03 0.00 83 1017.7
20260901001055 17 233 3.2 16.1 0.00 0.03 0.00 83 1017.7
20260901000555 17 218 1.6 17.7 0.00 0.03 0.00 84 1017.6
20260901000107 17 259 8.0 17.7 0.00 0.03 0.00 85 1017.9
20260831235555 17 235 6.4 8.0 0.00 0.03 0.00 87 1017.7
20260831234554 17 208 6.4 9.7 0.00 0.03 0.00 86 1017.9
20260831234055 17 152 3.2 9.7 0.00 0.03 0.00 86 1017.7
20260831233108 17 181 3.2 9.7 0.00 0.03 0.00 85 1017.7
20260831232055 17 251 6.4 12.9 0.00 0.03 0.00 83 1017.8
20260831231555 17 228 3.2 12.9 0.00 0.03 0.00 83 1017.9
20260831231055 18 224 6.4 11.3 0.00 0.03 0.00 83 1017.8
20260831230554 18 225 3.2 11.3 0.00 0.03 0.00 82 1018.2
20260831230107 18 211 4.8 11.3 0.00 0.03 0.00 81 1018.3
20260831225554 18 226 6.4 11.3 0.00 0.03 0.00 80 1018.4
20260831225055 18 212 4.8 14.5 0.00 0.03 0.00 78 1018.2
20260831224555 18 234 9.7 14.5 0.00 0.03 0.00 76 1018.5
20260831224055 18 208 6.4 11.3 0.00 0.03 0.00 75 1018.2
20260831223055 18 104 4.8 20.9 0.00 0.03 0.00 73 1018.3
20260831222054 19 220 12.9 17.7 0.00 0.03 0.00 73 1018.6
20260831221555 19 183 3.2 11.3 0.00 0.03 0.00 75 1018.5
20260831220108 19 179 3.2 9.7 0.00 0.03 0.00 75 1018.4
20260831215055 19 238 1.6 12.9 0.00 0.03 0.03 76 1018.4
20260831214554 19 185 3.2 12.9 0.03 0.03 0.03 76 1018.5
20260831214055 19 205 6.4 12.9 0.03 0.03 0.03 76 1018.4
20260831213555 19 202 3.2 8.0 0.03 0.03 0.03 76 1018.3
20260831212555 20 239 3.2 11.3 0.03 0.03 0.03 74 1018.2
20260831212055 20 206 3.2 11.3 0.03 0.03 0.03 71 1018.2
20260831211555 20 240 9.7 9.7 0.03 0.03 0.03 65 1017.7
20260831211054 20 214 0.0 6.4 0.03 0.03 0.03 68 1017.8
20260831210555 20 273 1.6 6.4 0.03 0.03 0.03 70 1017.9
20260831205555 20 180 0.0 9.7 0.03 0.03 0.03 71 1017.7
20260831205055 20 145 1.6 9.7 0.03 0.03 0.03 71 1017.7
20260831204554 20 223 1.6 8.0 0.00 0.00 0.00 67 1017.6
20260831204055 21 280 0.0 4.8 0.00 0.00 0.00 66 1017.5
20260831203554 21 246 1.6 3.2 0.00 0.00 0.00 65 1017.6
20260831203054 21 91 0.0 4.8 0.00 0.00 0.00 61 1017.5
20260831202055 21 260 3.2 8.0 0.00 0.00 0.00 63 1017.1
20260831201555 22 27 0.0 8.0 0.00 0.00 0.00 60 1017.3
20260831201055 22 333 1.6 4.8 0.00 0.00 0.00 53 1017.0
20260831200555 22 107 0.0 4.8 0.00 0.00 0.00 50 1016.7
20260831200107 22 356 3.2 4.8 0.00 0.00 0.00 50 1016.3
20260831195554 22 301 1.6 4.8 0.00 0.00 0.00 50 1016.2
20260831195055 22 338 1.6 4.8 0.00 0.00 0.00 50 1016.1
20260831194554 22 269 1.6 4.8 0.00 0.00 0.00 50 1015.8
20260831194055 22 13 3.2 3.2 0.00 0.00 0.00 50 1015.8
20260831193055 22 269 0.0 3.2 0.00 0.00 0.00 49 1015.6
20260831192555 22 316 1.6 4.8 0.00 0.00 0.00 49 1015.8
20260831192055 22 0 0.0 4.8 0.00 0.00 0.00 49 1015.8
20260831191555 22 25 0.0 4.8 0.00 0.00 0.00 49 1015.5
20260831191055 22 321 0.0 4.8 0.00 0.00 0.00 49 1015.3
20260831190554 22 349 1.6 4.8 0.00 0.00 0.00 49 1015.2
20260831190106 22 284 0.0 3.2 0.00 0.00 0.00 49 1015.2
20260831185556 22 357 0.0 3.2 0.00 0.00 0.00 49 1015.4
20260831185054 22 20 1.6 3.2 0.00 0.00 0.00 50 1015.4
20260831184555 22 307 0.0 1.6 0.00 0.00 0.00 50 1015.3
20260831184056 22 6 0.0 1.6 0.00 0.00 0.00 49 1015.2
20260831183555 22 315 0.0 3.2 0.00 0.00 0.00 48 1015.0
20260831182554 23 333 0.0 3.2 0.00 0.00 0.00 46 1014.9
20260831182055 23 353 0.0 1.6 0.00 0.00 0.00 46 1014.9
20260831181555 23 339 0.0 1.6 0.00 0.00 0.00 45 1014.9
20260831181055 23 303 0.0 1.6 0.00 0.00 0.00 44 1014.8
20260831180555 23 353 0.0 3.2 0.00 0.00 0.00 44 1014.9
20260831180107 23 289 1.6 3.2 0.00 0.00 0.00 43 1014.9
20260831175554 24 283 0.0 4.8 0.00 0.00 0.00 43 1014.7
20260831175054 24 0 3.2 6.4 0.00 0.00 0.00 42 1014.5
20260831174555 25 357 3.2 4.8 0.00 0.00 0.00 42 1014.5
20260831174055 25 276 3.2 8.0 0.00 0.00 0.00 41 1014.5
20260831173556 25 264 1.6 8.0 0.00 0.00 0.00 41 1014.5
20260831173055 25 328 0.0 4.8 0.00 0.00 0.00 42 1014.5
20260831172555 25 290 1.6 6.4 0.00 0.00 0.00 41 1014.8
20260831172055 26 13 0.0 6.4 0.00 0.00 0.00 40 1014.5
20260831171055 26 241 0.0 9.7 0.00 0.00 0.00 39 1014.6
20260831170555 26 250 3.2 8.0 0.00 0.00 0.00 39 1014.6
20260831170108 26 186 0.0 8.0 0.00 0.00 0.00 38 1014.4
20260831165055 27 337 3.2 14.5 0.00 0.00 0.00 37 1014.5
20260831164055 27 232 3.2 11.3 0.00 0.00 0.00 38 1014.5
20260831163555 27 0 3.2 11.3 0.00 0.00 0.00 37 1014.8
20260831163056 28 284 3.2 11.3 0.00 0.00 0.00 37 1014.7
20260831162555 28 347 1.6 11.3 0.00 0.00 0.00 37 1014.6
20260831162055 28 216 4.8 9.7 0.00 0.00 0.00 38 1014.9
20260831161551 28 292 6.4 9.7 0.00 0.00 0.00 37 1014.7
20260831161052 28 8 3.2 14.5 0.00 0.00 0.00 37 1014.8
20260831160552 28 318 3.2 14.5 0.00 0.00 0.00 37 1014.7
20260831160104 28 232 4.8 12.9 0.00 0.00 0.00 37 1014.7
20260831155553 28 278 3.2 11.3 0.00 0.00 0.00 37 1014.9
20260831154552 28 254 4.8 12.9 0.00 0.00 0.00 36 1014.8
20260831154051 28 244 6.4 27.4 0.00 0.00 0.00 36 1014.7
20260831153551 28 265 6.4 27.4 0.00 0.00 0.00 36 1014.7
20260831153052 29 283 3.2 11.3 0.00 0.00 0.00 35 1014.8
20260831152552 28 257 3.2 16.1 0.00 0.00 0.00 36 1014.7
20260831152054 28 271 1.6 16.1 0.00 0.00 0.00 36 1014.8
20260831151053 29 355 6.4 11.3 0.00 0.00 0.00 35 1014.9
20260831150552 29 260 4.8 11.3 0.00 0.00 0.00 36 1014.8
20260831150105 29 298 3.2 9.7 0.00 0.00 0.00 37 1014.9
20260831145054 29 262 3.2 12.9 0.00 0.00 0.00 37 1014.9
20260831144552 29 245 3.2 14.5 0.00 0.00 0.00 37 1014.8
20260831144052 29 265 3.2 16.1 0.00 0.00 0.00 37 1014.9
20260831143552 29 245 3.2 17.7 0.00 0.00 0.00 37 1015.0
20260831142604 29 342 17.7 27.4 0.00 0.00 0.00 37 1014.9
20260831142054 29 310 11.3 17.7 0.00 0.00 0.00 36 1014.7
20260831141552 30 223 8.0 12.9 0.00 0.00 0.00 37 1014.9